Time,TemperatureF,DewpointF,PressureIn,WindDirection,WindDirectionDegrees,WindSpeedMPH,WindSpeedGustMPH,Humidity,HourlyPrecipIn,Conditions,Clouds,dailyrainin,SoftwareType,DateUTC
2013-01-19 00:00:00,42.8,27.8,30.19,SW,217,1.0,0.0,55,0.00,,,0.00,VWS V14.01,2013-01-19 06:00:00,
2013-01-19 00:10:00,42.8,27.8,30.19,SW,229,0.0,0.0,55,0.00,,,0.00,VWS V14.01,2013-01-19 06:10:00,
2013-01-19 00:15:00,42.8,27.8,30.18,SE,141,1.0,0.0,55,0.00,,,0.00,VWS V14.01,2013-01-19 06:15:00,
2013-01-19 00:20:00,42.6,28.0,30.18,South,191,0.0,0.0,56,0.00,,,0.00,VWS V14.01,2013-01-19 06:20:00,
2013-01-19 00:25:00,42.6,27.6,30.18,SSE,166,4.0,0.0,55,0.00,,,0.00,VWS V14.01,2013-01-19 06:25:00,
2013-01-19 00:30:00,42.6,27.6,30.18,SSW,200,1.0,0.0,55,0.00,,,0.00,VWS V14.01,2013-01-19 06:30:00,
2013-01-19 00:35:00,42.7,27.7,30.18,South,183,0.0,0.0,55,0.00,,,0.00,VWS V14.01,2013-01-19 06:35:00,
2013-01-19 00:40:00,42.6,27.6,30.18,SE,140,11.0,0.0,55,0.00,,,0.00,VWS V14.01,2013-01-19 06:40:00,
2013-01-19 00:45:00,42.7,27.7,30.18,SSW,207,0.0,0.0,55,0.00,,,0.00,VWS V14.01,2013-01-19 06:45:00,
2013-01-19 00:50:00,42.6,28.0,30.18,SSE,167,5.0,0.0,56,0.00,,,0.00,VWS V14.01,2013-01-19 06:50:00,
2013-01-19 00:55:00,42.5,27.9,30.18,SSW,200,0.0,0.0,56,0.00,,,0.00,VWS V14.01,2013-01-19 06:55:00,
2013-01-19 01:00:00,42.6,28.0,30.18,South,182,1.0,0.0,56,0.00,,,0.00,VWS V14.01,2013-01-19 07:00:00,
2013-01-19 01:10:00,42.6,28.0,30.18,SSW,211,3.0,0.0,56,0.00,,,0.00,VWS V14.01,2013-01-19 07:10:00,
2013-01-19 01:15:00,42.8,28.2,30.17,South,190,1.0,0.0,56,0.00,,,0.00,VWS V14.01,2013-01-19 07:15:00,
2013-01-19 01:20:00,42.9,27.9,30.17,SSW,196,4.0,0.0,55,0.00,,,0.00,VWS V14.01,2013-01-19 07:20:00,
2013-01-19 01:25:00,42.9,28.3,30.17,SSW,203,8.0,0.0,56,0.00,,,0.00,VWS V14.01,2013-01-19 07:25:00,
2013-01-19 01:30:00,43.1,28.5,30.17,SW,235,3.0,0.0,56,0.00,,,0.00,VWS V14.01,2013-01-19 07:30:00,
2013-01-19 01:35:00,43.0,28.4,30.17,SW,221,4.0,0.0,56,0.00,,,0.00,VWS V14.01,2013-01-19 07:35:00,
2013-01-19 01:40:00,42.8,28.2,30.17,SSW,210,2.0,0.0,56,0.00,,,0.00,VWS V14.01,2013-01-19 07:40:00,
2013-01-19 01:45:00,42.7,28.1,30.17,SSW,210,2.0,0.0,56,0.00,,,0.00,VWS V14.01,2013-01-19 07:45:00,
2013-01-19 01:50:00,42.7,28.5,30.17,SSW,213,0.0,0.0,57,0.00,,,0.00,VWS V14.01,2013-01-19 07:50:00,
2013-01-19 01:55:00,42.6,28.5,30.17,SSE,160,5.0,0.0,57,0.00,,,0.00,VWS V14.01,2013-01-19 07:55:00,
2013-01-19 02:00:00,42.9,28.3,30.17,SW,215,0.0,0.0,56,0.00,,,0.00,VWS V14.01,2013-01-19 08:00:00,
2013-01-19 02:05:00,42.9,28.3,30.17,South,174,5.0,0.0,56,0.00,,,0.00,VWS V14.01,2013-01-19 08:05:00,
2013-01-19 02:10:00,43.1,28.5,30.17,South,173,0.0,0.0,56,0.00,,,0.00,VWS V14.01,2013-01-19 08:10:00,
2013-01-19 02:15:00,43.1,28.5,30.17,SSE,153,7.0,0.0,56,0.00,,,0.00,VWS V14.01,2013-01-19 08:15:00,
2013-01-19 02:20:00,43.1,28.5,30.17,South,169,4.0,0.0,56,0.00,,,0.00,VWS V14.01,2013-01-19 08:20:00,
2013-01-19 02:25:00,43.0,28.4,30.17,SSW,201,2.0,0.0,56,0.00,,,0.00,VWS V14.01,2013-01-19 08:25:00,
2013-01-19 02:30:00,42.9,28.3,30.16,South,176,5.0,0.0,56,0.00,,,0.00,VWS V14.01,2013-01-19 08:30:00,
2013-01-19 02:35:00,43.0,28.4,30.16,SSW,203,0.0,0.0,56,0.00,,,0.00,VWS V14.01,2013-01-19 08:35:00,
2013-01-19 02:40:00,42.9,28.7,30.16,South,181,5.0,0.0,57,0.00,,,0.00,VWS V14.01,2013-01-19 08:40:00,
2013-01-19 02:45:00,42.8,28.6,30.16,SSW,210,0.0,0.0,57,0.00,,,0.00,VWS V14.01,2013-01-19 08:45:00,
2013-01-19 02:55:00,42.8,28.6,30.16,SSW,200,0.0,0.0,57,0.00,,,0.00,VWS V14.01,2013-01-19 08:55:00,
2013-01-19 03:00:00,42.6,28.9,30.15,South,187,5.0,0.0,58,0.00,,,0.00,VWS V14.01,2013-01-19 09:00:00,
2013-01-19 03:05:00,42.8,29.1,30.15,South,187,9.0,0.0,58,0.00,,,0.00,VWS V14.01,2013-01-19 09:05:00,
2013-01-19 03:10:00,43.2,29.0,30.15,SW,217,1.0,0.0,57,0.00,,,0.00,VWS V14.01,2013-01-19 09:10:00,
2013-01-19 03:15:00,43.3,29.1,30.15,SSW,195,3.0,0.0,57,0.00,,,0.00,VWS V14.01,2013-01-19 09:15:00,
2013-01-19 03:20:00,43.1,28.9,30.15,South,173,4.0,0.0,57,0.00,,,0.00,VWS V14.01,2013-01-19 09:20:00,
2013-01-19 03:25:00,43.1,28.9,30.15,SW,215,3.0,0.0,57,0.00,,,0.00,VWS V14.01,2013-01-19 09:25:00,
2013-01-19 03:30:00,43.2,29.0,30.15,SSW,200,4.0,0.0,57,0.00,,,0.00,VWS V14.01,2013-01-19 09:30:00,
2013-01-19 03:40:00,43.0,29.2,30.15,SSW,195,0.0,0.0,58,0.00,,,0.00,VWS V14.01,2013-01-19 09:40:00,
2013-01-19 03:45:00,43.1,29.3,30.15,South,172,6.0,0.0,58,0.00,,,0.00,VWS V14.01,2013-01-19 09:45:00,
2013-01-19 03:50:00,43.1,29.3,30.15,SSW,192,5.0,0.0,58,0.00,,,0.00,VWS V14.01,2013-01-19 09:50:00,
2013-01-19 03:55:00,43.2,29.4,30.15,South,182,4.0,0.0,58,0.00,,,0.00,VWS V14.01,2013-01-19 09:55:00,
2013-01-19 04:00:00,43.2,29.9,30.15,SSW,198,1.0,0.0,59,0.00,,,0.00,VWS V14.01,2013-01-19 10:00:00,
2013-01-19 04:05:00,43.0,29.7,30.15,South,172,0.0,0.0,59,0.00,,,0.00,VWS V14.01,2013-01-19 10:05:00,
2013-01-19 04:10:00,43.1,29.8,30.15,WSW,241,2.0,0.0,59,0.00,,,0.00,VWS V14.01,2013-01-19 10:10:00,
2013-01-19 04:15:00,43.2,29.9,30.15,SSE,163,0.0,0.0,59,0.00,,,0.00,VWS V14.01,2013-01-19 10:15:00,
2013-01-19 04:20:00,43.0,29.7,30.15,SSW,192,0.0,0.0,59,0.00,,,0.00,VWS V14.01,2013-01-19 10:20:00,
2013-01-19 04:25:00,43.1,29.8,30.15,South,177,1.0,0.0,59,0.00,,,0.00,VWS V14.01,2013-01-19 10:25:00,
2013-01-19 04:30:00,42.9,30.0,30.15,South,190,0.0,0.0,60,0.00,,,0.00,VWS V14.01,2013-01-19 10:30:00,
2013-01-19 04:35:00,42.8,29.9,30.15,SSE,168,2.0,0.0,60,0.00,,,0.00,VWS V14.01,2013-01-19 10:35:00,
2013-01-19 04:40:00,42.8,29.9,30.15,South,183,7.0,0.0,60,0.00,,,0.00,VWS V14.01,2013-01-19 10:40:00,
2013-01-19 04:45:00,42.7,29.8,30.14,SSW,202,1.0,0.0,60,0.00,,,0.00,VWS V14.01,2013-01-19 10:45:00,
2013-01-19 04:50:00,42.7,30.2,30.14,SSE,166,3.0,0.0,61,0.00,,,0.00,VWS V14.01,2013-01-19 10:50:00,
2013-01-19 05:00:00,42.7,30.2,30.14,South,182,5.0,0.0,61,0.00,,,0.00,VWS V14.01,2013-01-19 11:00:00,
2013-01-19 05:05:00,42.7,30.2,30.14,SSW,205,1.0,0.0,61,0.00,,,0.00,VWS V14.01,2013-01-19 11:05:00,
2013-01-19 05:10:00,42.7,30.2,30.14,South,187,5.0,0.0,61,0.00,,,0.00,VWS V14.01,2013-01-19 11:10:00,
2013-01-19 05:15:00,42.7,30.6,30.15,SSW,202,0.0,0.0,62,0.00,,,0.00,VWS V14.01,2013-01-19 11:15:00,
2013-01-19 06:50:00,42.0,31.1,30.15,South,178,3.0,0.0,65,0.00,,,0.00,VWS V14.01,2013-01-19 12:50:00,
2013-01-19 06:55:00,42.2,31.3,30.15,South,182,1.0,0.0,65,0.00,,,0.00,VWS V14.01,2013-01-19 12:55:00,
2013-01-19 07:00:00,42.1,31.2,30.15,SSE,156,1.0,0.0,65,0.00,,,0.00,VWS V14.01,2013-01-19 13:00:00,
2013-01-19 07:10:00,42.1,31.2,30.15,South,182,0.0,0.0,65,0.00,,,0.00,VWS V14.01,2013-01-19 13:10:00,
2013-01-19 07:15:00,42.2,31.3,30.15,South,175,0.0,0.0,65,0.00,,,0.00,VWS V14.01,2013-01-19 13:15:00,
2013-01-19 07:20:00,42.0,31.5,30.15,South,171,3.0,0.0,66,0.00,,,0.00,VWS V14.01,2013-01-19 13:20:00,
2013-01-19 07:25:00,42.1,31.6,30.15,SW,236,6.0,0.0,66,0.00,,,0.00,VWS V14.01,2013-01-19 13:25:00,
2013-01-19 07:35:00,42.2,31.3,30.15,South,171,0.0,0.0,65,0.00,,,0.00,VWS V14.01,2013-01-19 13:35:00,
2013-01-19 07:40:00,42.2,31.7,30.15,South,187,3.0,0.0,66,0.00,,,0.00,VWS V14.01,2013-01-19 13:40:00,
2013-01-19 07:45:00,42.1,31.6,30.15,South,173,6.0,0.0,66,0.00,,,0.00,VWS V14.01,2013-01-19 13:45:00,
2013-01-19 07:50:00,42.3,31.8,30.15,WSW,244,5.0,0.0,66,0.00,,,0.00,VWS V14.01,2013-01-19 13:50:00,
2013-01-19 07:55:00,42.5,31.6,30.15,SSW,198,0.0,0.0,65,0.00,,,0.00,VWS V14.01,2013-01-19 13:55:00,
2013-01-19 08:00:00,42.7,31.8,30.15,SW,234,0.0,0.0,65,0.00,,,0.00,VWS V14.01,2013-01-19 14:00:00,
2013-01-19 08:10:00,43.3,32.3,30.15,WSW,238,3.0,0.0,65,0.00,,,0.00,VWS V14.01,2013-01-19 14:10:00,
2013-01-19 08:15:00,43.6,32.2,30.15,SSW,194,7.0,0.0,64,0.00,,,0.00,VWS V14.01,2013-01-19 14:15:00,
2013-01-19 08:25:00,44.2,32.4,30.15,SSW,192,0.0,0.0,63,0.00,,,0.00,VWS V14.01,2013-01-19 14:25:00,
2013-01-19 08:35:00,44.7,32.9,30.15,SW,222,0.0,0.0,63,0.00,,,0.00,VWS V14.01,2013-01-19 14:35:00,
2013-01-19 08:40:00,45.1,32.9,30.15,SSW,199,2.0,0.0,62,0.00,,,0.00,VWS V14.01,2013-01-19 14:40:00,
2013-01-19 08:45:00,45.5,32.8,30.15,SSW,200,0.0,0.0,61,0.00,,,0.00,VWS V14.01,2013-01-19 14:45:00,
2013-01-19 08:50:00,45.9,33.2,30.15,SSW,205,0.0,0.0,61,0.00,,,0.00,VWS V14.01,2013-01-19 14:50:00,
2013-01-19 08:55:00,46.3,33.2,30.15,South,190,2.0,0.0,60,0.00,,,0.00,VWS V14.01,2013-01-19 14:55:00,
2013-01-19 09:00:00,46.7,33.6,30.16,South,188,2.0,0.0,60,0.00,,,0.00,VWS V14.01,2013-01-19 15:00:00,
2013-01-19 09:10:00,47.4,33.8,30.16,South,186,2.0,0.0,59,0.00,,,0.00,VWS V14.01,2013-01-19 15:10:00,
2013-01-19 09:20:00,47.8,34.2,30.16,SW,234,4.0,0.0,59,0.00,,,0.00,VWS V14.01,2013-01-19 15:20:00,
2013-01-19 09:25:00,48.2,34.6,30.16,SSE,161,1.0,0.0,59,0.00,,,0.00,VWS V14.01,2013-01-19 15:25:00,
2013-01-19 09:30:00,48.6,34.5,30.16,SW,220,0.0,0.0,58,0.00,,,0.00,VWS V14.01,2013-01-19 15:30:00,
2013-01-19 09:35:00,49.0,35.3,30.16,SSW,213,0.0,0.0,59,0.00,,,0.00,VWS V14.01,2013-01-19 15:35:00,
2013-01-19 09:40:00,49.5,34.9,30.16,SSW,207,1.0,0.0,57,0.00,,,0.00,VWS V14.01,2013-01-19 15:40:00,
2013-01-19 09:50:00,50.3,35.7,30.17,South,186,2.0,0.0,57,0.00,,,0.00,VWS V14.01,2013-01-19 15:50:00,
2013-01-19 09:55:00,50.7,35.6,30.17,SW,223,3.0,0.0,56,0.00,,,0.00,VWS V14.01,2013-01-19 15:55:00,
2013-01-19 10:00:00,51.1,35.5,30.16,South,191,0.0,0.0,55,0.00,,,0.00,VWS V14.01,2013-01-19 16:00:00,
2013-01-19 10:05:00,51.5,35.4,30.16,SSE,155,10.0,0.0,54,0.00,,,0.00,VWS V14.01,2013-01-19 16:05:00,
2013-01-19 10:10:00,51.8,36.2,30.16,SSW,202,3.0,0.0,55,0.00,,,0.00,VWS V14.01,2013-01-19 16:10:00,
2013-01-19 10:15:00,52.3,36.6,30.17,SW,220,0.0,0.0,55,0.00,,,0.00,VWS V14.01,2013-01-19 16:15:00,
2013-01-19 10:20:00,52.8,36.2,30.17,SW,224,8.0,0.0,53,0.00,,,0.00,VWS V14.01,2013-01-19 16:20:00,
2013-01-19 10:25:00,53.0,35.9,30.17,SSW,198,3.0,0.0,52,0.00,,,0.00,VWS V14.01,2013-01-19 16:25:00,
2013-01-19 10:35:00,54.0,36.3,30.16,South,171,9.0,0.0,51,0.00,,,0.00,VWS V14.01,2013-01-19 16:35:00,
2013-01-19 10:45:00,54.9,36.6,30.16,WSW,257,12.0,0.0,50,0.00,,,0.00,VWS V14.01,2013-01-19 16:45:00,
2013-01-19 10:55:00,55.0,36.7,30.16,WSW,241,0.0,0.0,50,0.00,,,0.00,VWS V14.01,2013-01-19 16:55:00,
2013-01-19 11:00:00,55.4,36.6,30.16,SSW,212,6.0,0.0,49,0.00,,,0.00,VWS V14.01,2013-01-19 17:00:00,
2013-01-19 11:15:00,55.9,36.5,30.15,WSW,247,7.0,0.0,48,0.00,,,0.00,VWS V14.01,2013-01-19 17:15:00,
2013-01-19 11:25:00,55.8,36.4,30.15,SSW,213,9.0,0.0,48,0.00,,,0.00,VWS V14.01,2013-01-19 17:25:00,
2013-01-19 11:35:00,56.0,36.6,30.14,West,265,3.0,0.0,48,0.00,,,0.00,VWS V14.01,2013-01-19 17:35:00,
2013-01-19 11:40:00,56.2,36.8,30.14,SW,214,5.0,0.0,48,0.00,,,0.00,VWS V14.01,2013-01-19 17:40:00,
2013-01-19 11:45:00,56.9,37.4,30.13,SW,235,5.0,0.0,48,0.00,,,0.00,VWS V14.01,2013-01-19 17:45:00,
2013-01-19 11:55:00,56.8,37.3,30.13,South,190,10.0,0.0,48,0.00,,,0.00,VWS V14.01,2013-01-19 17:55:00,
2013-01-19 12:00:00,56.7,37.2,30.12,SW,214,9.0,0.0,48,0.00,,,0.00,VWS V14.01,2013-01-19 18:00:00,
2013-01-19 12:10:00,57.1,37.1,30.12,SW,232,0.0,0.0,47,0.00,,,0.00,VWS V14.01,2013-01-19 18:10:00,
2013-01-19 12:15:00,57.6,37.0,30.11,West,259,4.0,0.0,46,0.00,,,0.00,VWS V14.01,2013-01-19 18:15:00,
2013-01-19 12:25:00,58.1,37.5,30.11,South,183,9.0,0.0,46,0.00,,,0.00,VWS V14.01,2013-01-19 18:25:00,
2013-01-19 12:35:00,58.3,38.7,30.10,SW,221,1.0,0.0,48,0.00,,,0.00,VWS V14.01,2013-01-19 18:35:00,
2013-01-19 12:45:00,59.0,37.7,30.09,WSW,240,11.0,0.0,45,0.00,,,0.00,VWS V14.01,2013-01-19 18:45:00,
2013-01-19 12:50:00,59.0,37.7,30.09,SSW,194,6.0,0.0,45,0.00,,,0.00,VWS V14.01,2013-01-19 18:50:00,
2013-01-19 13:00:00,59.6,38.2,30.08,WSW,254,4.0,0.0,45,0.00,,,0.00,VWS V14.01,2013-01-19 19:00:00,
2013-01-19 13:05:00,59.9,38.5,30.08,SW,225,4.0,0.0,45,0.00,,,0.00,VWS V14.01,2013-01-19 19:05:00,
2013-01-19 13:10:00,60.3,38.3,30.08,SE,143,2.0,0.0,44,0.00,,,0.00,VWS V14.01,2013-01-19 19:10:00,
2013-01-19 13:20:00,60.4,38.4,30.08,SSE,168,0.0,0.0,44,0.00,,,0.00,VWS V14.01,2013-01-19 19:20:00,
2013-01-19 13:25:00,60.9,38.9,30.08,SW,214,8.0,0.0,44,0.00,,,0.00,VWS V14.01,2013-01-19 19:25:00,
2013-01-19 13:35:00,61.0,37.8,30.07,SSW,202,0.0,0.0,42,0.00,,,0.00,VWS V14.01,2013-01-19 19:35:00,
2013-01-19 13:40:00,61.2,39.1,30.07,WSW,242,6.0,0.0,44,0.00,,,0.00,VWS V14.01,2013-01-19 19:40:00,
2013-01-19 13:50:00,61.4,38.1,30.06,SW,226,12.0,0.0,42,0.00,,,0.00,VWS V14.01,2013-01-19 19:50:00,
2013-01-19 13:55:00,61.4,37.5,30.06,South,173,5.0,0.0,41,0.00,,,0.00,VWS V14.01,2013-01-19 19:55:00,
2013-01-19 14:05:00,61.7,37.8,30.06,SSW,195,10.0,0.0,41,0.00,,,0.00,VWS V14.01,2013-01-19 20:05:00,
2013-01-19 14:10:00,61.6,37.7,30.06,SW,227,12.0,0.0,41,0.00,,,0.00,VWS V14.01,2013-01-19 20:10:00,
2013-01-19 14:15:00,61.9,37.3,30.06,SW,227,13.0,0.0,40,0.00,,,0.00,VWS V14.01,2013-01-19 20:15:00,
2013-01-19 14:20:00,61.9,38.0,30.06,SSW,209,3.0,0.0,41,0.00,,,0.00,VWS V14.01,2013-01-19 20:20:00,
2013-01-19 14:25:00,61.7,37.2,30.06,West,268,14.0,0.0,40,0.00,,,0.00,VWS V14.01,2013-01-19 20:25:00,
2013-01-19 14:30:00,61.8,37.9,30.05,SW,214,5.0,0.0,41,0.00,,,0.00,VWS V14.01,2013-01-19 20:30:00,
2013-01-19 14:40:00,62.0,38.0,30.05,SSE,163,7.0,0.0,41,0.00,,,0.00,VWS V14.01,2013-01-19 20:40:00,
2013-01-19 14:45:00,61.8,37.2,30.04,SSE,153,9.0,0.0,40,0.00,,,0.00,VWS V14.01,2013-01-19 20:45:00,
2013-01-19 14:50:00,62.0,38.0,30.04,WSW,238,7.0,0.0,41,0.00,,,0.00,VWS V14.01,2013-01-19 20:50:00,
2013-01-19 14:55:00,62.1,37.5,30.04,SW,234,7.0,0.0,40,0.00,,,0.00,VWS V14.01,2013-01-19 20:55:00,
2013-01-19 15:00:00,62.2,37.6,30.05,SW,227,3.0,0.0,40,0.00,,,0.00,VWS V14.01,2013-01-19 21:00:00,
2013-01-19 15:05:00,62.3,38.3,30.05,SW,226,1.0,0.0,41,0.00,,,0.00,VWS V14.01,2013-01-19 21:05:00,
2013-01-19 15:10:00,62.3,38.3,30.05,WSW,241,4.0,0.0,41,0.00,,,0.00,VWS V14.01,2013-01-19 21:10:00,
2013-01-19 15:20:00,62.3,38.9,30.06,WSW,257,5.0,0.0,42,0.00,,,0.00,VWS V14.01,2013-01-19 21:20:00,
2013-01-19 15:30:00,61.6,37.7,30.06,SW,214,1.0,0.0,41,0.00,,,0.00,VWS V14.01,2013-01-19 21:30:00,
2013-01-19 15:40:00,61.5,38.2,30.06,SW,225,5.0,0.0,42,0.00,,,0.00,VWS V14.01,2013-01-19 21:40:00,
2013-01-19 16:00:00,61.4,38.7,30.06,SSE,164,6.0,0.0,43,0.00,,,0.00,VWS V14.01,2013-01-19 22:00:00,
2013-01-19 16:10:00,61.2,38.0,30.06,SW,221,4.0,0.0,42,0.00,,,0.00,VWS V14.01,2013-01-19 22:10:00,
2013-01-19 16:20:00,61.0,37.8,30.06,SSW,208,0.0,0.0,42,0.00,,,0.00,VWS V14.01,2013-01-19 22:20:00,
2013-01-19 16:25:00,60.9,38.3,30.06,SSW,195,9.0,0.0,43,0.00,,,0.00,VWS V14.01,2013-01-19 22:25:00,
2013-01-19 16:35:00,60.4,37.8,30.06,SSW,213,0.0,0.0,43,0.00,,,0.00,VWS V14.01,2013-01-19 22:35:00,
2013-01-19 16:40:00,60.2,37.6,30.06,SSW,192,1.0,0.0,43,0.00,,,0.00,VWS V14.01,2013-01-19 22:40:00,
2013-01-19 16:45:00,59.8,37.9,30.06,SSW,211,0.0,0.0,44,0.00,,,0.00,VWS V14.01,2013-01-19 22:45:00,
2013-01-19 16:50:00,59.5,38.2,30.06,WSW,246,0.0,0.0,45,0.00,,,0.00,VWS V14.01,2013-01-19 22:50:00,
2013-01-19 17:05:00,58.4,38.3,30.07,SW,233,0.0,0.0,47,0.00,,,0.00,VWS V14.01,2013-01-19 23:05:00,
2013-01-19 17:15:00,57.7,38.2,30.08,SW,217,0.0,0.0,48,0.00,,,0.00,VWS V14.01,2013-01-19 23:15:00,
2013-01-19 17:20:00,57.4,37.3,30.08,SSW,208,0.0,0.0,47,0.00,,,0.00,VWS V14.01,2013-01-19 23:20:00,
2013-01-19 17:30:00,56.6,37.7,30.08,South,186,0.0,0.0,49,0.00,,,0.00,VWS V14.01,2013-01-19 23:30:00,
2013-01-19 17:35:00,56.2,37.3,30.08,SW,225,0.0,0.0,49,0.00,,,0.00,VWS V14.01,2013-01-19 23:35:00,
2013-01-19 17:40:00,55.8,37.5,30.08,WSW,240,0.0,0.0,50,0.00,,,0.00,VWS V14.01,2013-01-19 23:40:00,
2013-01-19 17:45:00,55.5,37.2,30.08,WSW,240,0.0,0.0,50,0.00,,,0.00,VWS V14.01,2013-01-19 23:45:00,
2013-01-19 17:55:00,54.7,36.4,30.08,WSW,240,0.0,0.0,50,0.00,,,0.00,VWS V14.01,2013-01-19 23:55:00,
2013-01-19 18:20:00,52.8,36.2,30.10,WSW,241,0.0,0.0,53,0.00,,,0.00,VWS V14.01,2013-01-20 00:20:00,
2013-01-19 18:30:00,52.3,36.2,30.12,WSW,241,0.0,0.0,54,0.00,,,0.00,VWS V14.01,2013-01-20 00:30:00,
2013-01-19 18:35:00,52.0,36.3,30.12,WSW,241,0.0,0.0,55,0.00,,,0.00,VWS V14.01,2013-01-20 00:35:00,
2013-01-19 19:00:00,50.7,36.0,30.14,WSW,241,0.0,0.0,57,0.00,,,0.00,VWS V14.01,2013-01-20 01:00:00,
2013-01-19 19:05:00,50.4,36.2,30.14,WSW,241,0.0,0.0,58,0.00,,,0.00,VWS V14.01,2013-01-20 01:05:00,
2013-01-19 19:15:00,50.1,35.9,30.14,WSW,241,0.0,0.0,58,0.00,,,0.00,VWS V14.01,2013-01-20 01:15:00,
2013-01-19 19:25:00,49.8,36.1,30.14,WSW,241,0.0,0.0,59,0.00,,,0.00,VWS V14.01,2013-01-20 01:25:00,
2013-01-19 19:30:00,49.6,35.9,30.15,WSW,241,0.0,0.0,59,0.00,,,0.00,VWS V14.01,2013-01-20 01:30:00,
2013-01-19 19:45:00,48.8,35.5,30.15,WSW,241,0.0,0.0,60,0.00,,,0.00,VWS V14.01,2013-01-20 01:45:00,
2013-01-19 19:55:00,48.7,35.9,30.15,West,267,0.0,0.0,61,0.00,,,0.00,VWS V14.01,2013-01-20 01:55:00,
2013-01-19 20:05:00,49.0,36.2,30.15,West,267,0.0,0.0,61,0.00,,,0.00,VWS V14.01,2013-01-20 02:05:00,
2013-01-19 20:15:00,48.8,36.0,30.15,West,267,0.0,0.0,61,0.00,,,0.00,VWS V14.01,2013-01-20 02:15:00,
2013-01-19 20:25:00,48.7,35.9,30.15,West,267,0.0,0.0,61,0.00,,,0.00,VWS V14.01,2013-01-20 02:25:00,
2013-01-19 20:30:00,48.6,35.8,30.16,West,267,0.0,0.0,61,0.00,,,0.00,VWS V14.01,2013-01-20 02:30:00,
2013-01-19 20:40:00,48.8,36.4,30.16,West,267,0.0,0.0,62,0.00,,,0.00,VWS V14.01,2013-01-20 02:40:00,
2013-01-19 20:45:00,48.8,36.4,30.16,West,267,0.0,0.0,62,0.00,,,0.00,VWS V14.01,2013-01-20 02:45:00,
2013-01-19 20:55:00,48.3,35.9,30.16,West,267,0.0,0.0,62,0.00,,,0.00,VWS V14.01,2013-01-20 02:55:00,
2013-01-19 21:00:00,48.0,36.0,30.17,West,267,0.0,0.0,63,0.00,,,0.00,VWS V14.01,2013-01-20 03:00:00,
2013-01-19 21:05:00,47.7,35.7,30.17,West,267,0.0,0.0,63,0.00,,,0.00,VWS V14.01,2013-01-20 03:05:00,
2013-01-19 21:20:00,46.8,35.3,30.16,West,267,0.0,0.0,64,0.00,,,0.00,VWS V14.01,2013-01-20 03:20:00,
2013-01-19 21:25:00,46.1,35.4,30.16,West,267,0.0,0.0,66,0.00,,,0.00,VWS V14.01,2013-01-20 03:25:00,
2013-01-19 21:30:00,45.9,35.2,30.17,West,267,0.0,0.0,66,0.00,,,0.00,VWS V14.01,2013-01-20 03:30:00,
2013-01-19 21:40:00,45.4,35.5,30.17,West,267,0.0,0.0,68,0.00,,,0.00,VWS V14.01,2013-01-20 03:40:00,
2013-01-19 21:50:00,45.0,35.5,30.17,West,267,0.0,0.0,69,0.00,,,0.00,VWS V14.01,2013-01-20 03:50:00,
2013-01-19 21:55:00,44.7,35.2,30.17,West,267,0.0,0.0,69,0.00,,,0.00,VWS V14.01,2013-01-20 03:55:00,
2013-01-19 22:00:00,44.5,35.0,30.17,West,267,0.0,0.0,69,0.00,,,0.00,VWS V14.01,2013-01-20 04:00:00,
2013-01-19 22:10:00,44.1,35.0,30.17,West,267,0.0,0.0,70,0.00,,,0.00,VWS V14.01,2013-01-20 04:10:00,
2013-01-19 22:20:00,43.8,35.0,30.17,West,267,0.0,0.0,71,0.00,,,0.00,VWS V14.01,2013-01-20 04:20:00,
2013-01-19 22:25:00,43.8,35.0,30.17,West,267,0.0,0.0,71,0.00,,,0.00,VWS V14.01,2013-01-20 04:25:00,
2013-01-19 22:30:00,43.8,35.0,30.17,West,267,0.0,0.0,71,0.00,,,0.00,VWS V14.01,2013-01-20 04:30:00,
2013-01-19 22:35:00,43.7,34.9,30.17,West,267,0.0,0.0,71,0.00,,,0.00,VWS V14.01,2013-01-20 04:35:00,
2013-01-19 22:45:00,43.2,34.8,30.18,West,267,0.0,0.0,72,0.00,,,0.00,VWS V14.01,2013-01-20 04:45:00,
2013-01-19 22:50:00,42.8,34.4,30.18,West,267,0.0,0.0,72,0.00,,,0.00,VWS V14.01,2013-01-20 04:50:00,
2013-01-19 23:05:00,41.4,33.8,30.18,West,267,0.0,0.0,74,0.00,,,0.00,VWS V14.01,2013-01-20 05:05:00,
2013-01-19 23:10:00,40.9,33.6,30.18,West,267,0.0,0.0,75,0.00,,,0.00,VWS V14.01,2013-01-20 05:10:00,
2013-01-19 23:15:00,40.5,33.5,30.18,West,267,0.0,0.0,76,0.00,,,0.00,VWS V14.01,2013-01-20 05:15:00,
2013-01-19 23:20:00,40.1,33.2,30.18,West,267,0.0,0.0,76,0.00,,,0.00,VWS V14.01,2013-01-20 05:20:00,
2013-01-19 23:25:00,39.8,33.2,30.18,West,267,0.0,0.0,77,0.00,,,0.00,VWS V14.01,2013-01-20 05:25:00,
2013-01-19 23:30:00,39.5,33.2,30.18,West,267,0.0,0.0,78,0.00,,,0.00,VWS V14.01,2013-01-20 05:30:00,
2013-01-19 23:35:00,39.3,33.0,30.18,West,267,0.0,0.0,78,0.00,,,0.00,VWS V14.01,2013-01-20 05:35:00,
2013-01-19 23:40:00,39.2,33.2,30.18,West,267,0.0,0.0,79,0.00,,,0.00,VWS V14.01,2013-01-20 05:40:00,
2013-01-19 23:50:00,38.7,33.1,30.18,West,267,0.0,0.0,80,0.00,,,0.00,VWS V14.01,2013-01-20 05:50:00,